Flag for Mauritania Weather past 2 weeks in Nouakchott, Mauritania

Now
75 °F

Passing clouds.


Feels Like: 76 °F
Forecast: N/A
Wind: 7 mph from Northwest

Location: Nouakchott Airport

Current Time: Jul 6, 2015 at 8:54:52 PM

Latest Report: Jul 6, 2015 at 8:30 PM


Visibility: 4 mi

Pressure: 29.86 "Hg

Humidity: 78%

Dew point: 68 °F

Location of NouakchottLocation

Historic Weather in Nouakchott — Graph

°F

Nouakchott temperature yesterday

Maximum temperature yesterday: 86 °F (at 12:30 PM)
Minimum temperature yesterday: 77 °F (at 7:00 AM)
Average temperature yesterday: 81 °F

Past Weeks' High & Low Weather Summary

 TemperatureHumidityPressure
High117 °F (Jul 4, 3:30 PM)89% (Jun 22, 7:00 AM)30.04 "Hg (Jun 22, 7:00 AM)
Low73 °F (Jun 26, 4:30 AM)7% (Jul 4, 2:00 PM)29.68 "Hg (Jul 4, 4:30 PM)
Average81 °F66%29.88 "Hg
* Reported Jun 21 7:00 PM — Jul 6 7:30 PM, Nouakchott, Weather by CustomWeather, © 2015

Note: Actual official high and low records may vary slightly from our data, if they occured in-between our weather recording intervals... More about our weather records

Advertising

Nouakchott weather history for previous 24 hours

 ConditionsComfort  
Time TempWeatherWind HumidityBarometerVisibility
7:30 PM
Mon, Jul 6
77 °FScattered clouds.9 mph74%29.83 "Hg4 mi
7:00 PM77 °FScattered clouds.12 mph74%29.80 "Hg4 mi
6:30 PM79 °FScattered clouds.12 mph70%29.80 "Hg4 mi
6:00 PM79 °FScattered clouds.12 mph70%29.80 "Hg4 mi
5:30 PM81 °FScattered clouds.12 mph66%29.80 "Hg4 mi
5:00 PM81 °FScattered clouds.12 mph66%29.83 "Hg4 mi
4:30 PM82 °FScattered clouds.12 mph66%29.83 "Hg4 mi
4:00 PM82 °FScattered clouds.10 mph62%29.83 "Hg4 mi
3:30 PM82 °FScattered clouds.9 mph62%29.83 "Hg4 mi
3:00 PM84 °FScattered clouds.9 mph62%29.83 "Hg4 mi
2:30 PM82 °FScattered clouds.7 mph62%29.86 "Hg4 mi
2:00 PM82 °FScattered clouds.8 mph62%29.86 "Hg4 mi
1:30 PM82 °FScattered clouds.10 mph62%29.86 "Hg4 mi
1:00 PM82 °FScattered clouds.12 mph66%29.86 "Hg4 mi
12:30 PM81 °FPartly sunny.9 mph66%29.86 "Hg4 mi
12:00 PM81 °FPartly sunny.9 mph66%29.86 "Hg4 mi
11:30 AM81 °FPartly sunny.10 mph70%29.86 "Hg4 mi
11:00 AM81 °FPartly sunny.12 mph70%29.86 "Hg4 mi
10:30 AM81 °FPartly sunny.10 mph70%29.86 "Hg4 mi
10:00 AM79 °FPartly sunny.12 mph74%29.83 "Hg4 mi
9:30 AM79 °FPartly sunny.12 mph74%29.83 "Hg4 mi
9:00 AM77 °FPartly sunny.9 mph74%29.83 "Hg4 mi
8:30 AM77 °FPartly sunny.10 mph79%29.83 "Hg4 mi
8:00 AM77 °FPartly sunny.9 mph74%29.83 "Hg4 mi
7:30 AM77 °FPartly sunny.12 mph79%29.83 "Hg4 mi
7:00 AM75 °FPartly sunny.9 mph78%29.83 "Hg4 mi
6:30 AM77 °FPassing clouds.9 mph74%29.80 "Hg4 mi
6:00 AM77 °FPassing clouds.13 mph74%29.80 "Hg4 mi
5:30 AM77 °FPassing clouds.12 mph74%29.80 "Hg4 mi
5:00 AM77 °FPassing clouds.13 mph74%29.80 "Hg4 mi
4:30 AM77 °FPassing clouds.10 mph74%29.80 "Hg4 mi
4:00 AM77 °FPassing clouds.14 mph74%29.80 "Hg4 mi
3:30 AM77 °FPassing clouds.12 mph74%29.80 "Hg4 mi
3:00 AM77 °FPassing clouds.12 mph79%29.80 "Hg4 mi
2:30 AM77 °FPassing clouds.12 mph79%29.83 "Hg4 mi
2:00 AM77 °FPassing clouds.12 mph79%29.83 "Hg4 mi
1:30 AM77 °FPassing clouds.12 mph79%29.83 "Hg4 mi
1:00 AM77 °FPassing clouds.14 mph79%29.83 "Hg4 mi
12:30 AM77 °FPassing clouds.14 mph79%29.83 "Hg4 mi
12:00 AM77 °FPassing clouds.14 mph79%29.86 "Hg4 mi
11:30 PM
Sun, Jul 5
77 °FPassing clouds.14 mph79%29.83 "Hg4 mi
11:00 PM79 °FPassing clouds.14 mph74%29.83 "Hg4 mi
10:30 PM79 °FPassing clouds.12 mph79%29.83 "Hg4 mi
10:00 PM79 °FPassing clouds.13 mph74%29.83 "Hg4 mi
9:30 PM79 °FPassing clouds.14 mph74%29.83 "Hg4 mi
9:00 PM79 °FPassing clouds.13 mph79%29.80 "Hg4 mi
8:30 PM79 °FPassing clouds.13 mph74%29.80 "Hg4 mi
8:00 PM79 °FPassing clouds.12 mph79%29.80 "Hg4 mi
Weather by CustomWeather, © 2015

See weather overviewHow to use our weather pages